Location: Asheville, NC
(35.6000°N, 82.5500°W)
Time: 01:54:39
(UTC-04:00)

Vanguard 2 - Pass Details

Date: 15 December 2017
Orbit: 553 x 2939 km, 32.9° (Epoch: 20 July)

Event Time Altitude Azimuth Distance (km) Brightness Sun altitude
Rises 16:38:08 0° 259° (W) 4,538 12.9 6.2°
Reaches altitude 10° 16:41:49 10° 257° (WSW) 3,174 12.3 5.5°
Maximum altitude 16:49:01 66° 177° (S) 909 8.2 4.3°
Drops below altitude 10° 16:53:39 10° 95° (E) 2,075 9.3 3.5°
Sets 16:55:38 0° 92° (E) 2,862 10.0 3.2°
